Weather History for Bridgeport, CT

Change the Weather History Date:

Saturday, January 19, 2013

  Actual Average Record
Temperature  
Mean Temperature 39 °F 30 °F  
Max Temperature 46 °F 37 °F 56 °F (1951)
Min Temperature 31 °F 23 °F -2 °F (1994)
Degree Days  
Heating Degree Days 26 35  
Month to date heating degree days 549 661  
Since 1 July heating degree days 2245 2554  
Cooling Degree Days 0 0  
Month to date cooling degree days 0 0  
Year to date cooling degree days 0 0  
Moisture  
Dew Point 28 °F    
Average Humidity 63    
Maximum Humidity 76    
Minimum Humidity 49    
Precipitation  
Precipitation 0.00 in 0.10 in 0.76 in (1996)
Month to date precipitation 1.15 1.97  
Year to date precipitation 1.15 1.97  
Snow  
Snow 0.00 in 0.30 in 4.50 in (2002)
Month to date snowfall 3.5 4.9  
Since 1 July snowfall 19.7 10.7  
Snow Depth 0.00 in    
Sea Level Pressure  
Sea Level Pressure 30.17 in    
Wind  
Wind Speed 15 mph (SW)    
Max Wind Speed 25 mph    
Max Gust Speed 32 mph    
Visibility 10 miles    
Events      
T = Trace of Precipitation, MM = Missing Value Source: NWS Daily Summary

Daily Weather History Graph

Daily Weather History Graph

Search for Another Location

Airport:

Trip Planner

Search our weather history database for the weather conditions in past years. The results will help you decide how hot, cold, wet, or windy it might be!

Date:

Astronomy

Jan. 19, 2013 Rise Set
Actual Time 7:13 AM EST 4:53 PM EST
Civil Twilight 6:43 AM EST 5:23 PM EST
Nautical Twilight 6:09 AM EST 5:57 PM EST
Astronomical Twilight 5:36 AM EST 6:30 PM EST
Moon 11:18 AM EST (1/19) 12:44 AM EST (1/19)
Length of Visible Light 10h 40m
Length of Day
9h 40m
First Quarter, 57% of the Moon is Illuminated
Jan 19
First Quarter
Jan 26
Full
Feb 3
Last Quarter
Feb 10
New
Feb 17
First Quarter

Hourly Weather History & Observations

Time (EST) Temp. Windchill Dew Point Humidity Pressure Visibility Wind Dir Wind Speed Gust Speed Precip Events Conditions
12:52 AM 30.9 °F 19.1 °F 15.1 °F 52% 30.39 in 10.0 mi SW 18.4 mph - N/A   Scattered Clouds
1:52 AM 32.0 °F 20.1 °F 16.0 °F 52% 30.38 in 10.0 mi SW 19.6 mph 26.5 mph N/A   Overcast
2:52 AM 33.1 °F 22.2 °F 18.0 °F 54% 30.36 in 10.0 mi SW 17.3 mph 29.9 mph N/A   Overcast
3:52 AM 34.0 °F 23.0 °F 17.1 °F 50% 30.34 in 10.0 mi SW 18.4 mph 26.5 mph N/A   Partly Cloudy
4:52 AM 35.1 °F 23.8 °F 21.0 °F 57% 30.32 in 10.0 mi SW 20.7 mph 27.6 mph N/A   Overcast
5:52 AM 36.0 °F 24.7 °F 21.9 °F 57% 30.30 in 10.0 mi SW 21.9 mph 27.6 mph N/A   Overcast
6:52 AM 37.0 °F 25.9 °F 23.0 °F 57% 30.29 in 10.0 mi SW 23.0 mph 31.1 mph N/A   Clear
7:52 AM 37.0 °F 26.4 °F 24.1 °F 59% 30.28 in 10.0 mi SW 20.7 mph 31.1 mph N/A   Clear
8:52 AM 37.4 °F 26.6 °F 26.6 °F 65% 30.27 in 10.0 mi SW 21.9 mph 28.8 mph N/A   Scattered Clouds
9:52 AM 41.0 °F 32.8 °F 27.0 °F 57% 30.26 in 10.0 mi SW 16.1 mph - N/A   Clear
10:52 AM 42.1 °F 34.5 °F 28.0 °F 58% 30.23 in 10.0 mi SW 15.0 mph - N/A   Clear
11:52 AM 43.0 °F 36.0 °F 30.0 °F 60% 30.17 in 10.0 mi SW 13.8 mph - N/A   Clear
12:52 PM 43.0 °F 36.4 °F 30.9 °F 62% 30.13 in 10.0 mi SW 12.7 mph - N/A   Clear
1:52 PM 44.1 °F 38.1 °F 33.1 °F 65% 30.10 in 10.0 mi SW 11.5 mph - N/A   Clear
2:52 PM 45.0 °F 39.7 °F 33.1 °F 63% 30.07 in 10.0 mi SW 10.4 mph - N/A   Clear
3:52 PM 45.0 °F 41.2 °F 33.1 °F 63% 30.06 in 10.0 mi WSW 6.9 mph - N/A   Partly Cloudy
4:52 PM 45.0 °F 41.2 °F 33.1 °F 63% 30.05 in 10.0 mi SW 6.9 mph - N/A   Partly Cloudy
5:52 PM 44.1 °F 38.6 °F 35.1 °F 71% 30.04 in 10.0 mi SSW 10.4 mph - N/A   Clear
6:52 PM 44.1 °F 38.6 °F 35.1 °F 71% 30.04 in 10.0 mi SSW 10.4 mph - N/A   Clear
7:52 PM 44.1 °F 37.7 °F 35.1 °F 71% 30.01 in 10.0 mi SSW 12.7 mph - N/A   Clear
8:52 PM 43.0 °F 36.8 °F 35.1 °F 74% 30.00 in 10.0 mi SSW 11.5 mph - N/A   Clear
9:52 PM 43.0 °F 37.2 °F 34.0 °F 71% 29.98 in 10.0 mi SW 10.4 mph - N/A   Clear
10:52 PM 43.0 °F 35.4 °F 34.0 °F 71% 29.95 in 10.0 mi SSW 16.1 mph - N/A   Clear
11:52 PM 43.0 °F 36.0 °F 34.0 °F 71% 29.92 in 10.0 mi SSW 13.8 mph - N/A   Clear